Погода в Лингайене

Филиппины     16°00′50″N   120°13′47″E
темп.,
°C
ветер,
м/с
пор.,
м/с
влажн.,
%
обл.,
%
осадки,
мм/ч
давл.,
гПа
погр.,
м
17 апреля, сб
сб1723:00+27з2279100 4.4 101278
02:00+26ююв3479100 5.6 1010190
05:00+25юв4581100 0.0 1010198
08:00+27юв4471100 0.0 1012425
11:00+31с325691 0.0 10111015
14:00+32с6552100 0.0 1008788
17:00+29ссз676256 0.0 1008585
20:00+28сз5673100 0.0 1010488
18 апреля, вс
вс1823:00+27ссз1279100 1.9 1010235
02:00+25ююв4681100 2.2 1009205
05:00+25юв5880100 0.0 1008266
08:00+28юв556296 0.0 1010666
11:00+31с2246100 0.0 1008878
14:00+31с435394 0.0 1005903
17:00+29ссз6667100 0.0 1005503
20:00+28сз3472100 0.1 1007273
19 апреля, пн
пн1923:00+26ю2280100 1.9 100866
02:00+25ююв3380100 2.6 1006113
05:00+25ююв3377100 0.0 100699
08:00+27юв226462 0.0 1008337
11:00+30с4456100 0.0 1006927
14:00+29сз7767100 0.0 1004586
17:00+28ссз6665100 0.0 1004598
20:00+27зсз3469100 0.0 1006328
20 апреля, вт
вт2023:00+26ююз2272100 0.0 1006103
02:00+25ююв2373100 0.0 1004123
05:00+25ююв3372100 0.0 1005122
08:00+27вюв2163100 0.0 1007389
11:00+30с4358100 0.0 1006922
14:00+30сз6661100 0.0 1004838
17:00+28ссз7770100 0.0 1004768
20:00+28зсз4674100 0.0 1006446
21 апреля, ср
ср2123:00+27зсз3473100 0.1 1006323
02:00+27зсз2374100 0.1 1005313
05:00+26юв1177100 0.0 100599
08:00+28юв1268100 0.0 1006516
11:00+29ссз4364100 0.0 1006896
14:00+30ссз6663100 0.0 1004890
17:00+28ссз8872100 0.0 1004901
20:00+28ссз8976100 0.7 1006913